Regional Weather Roundup
Issued by NWS

Home | Current Version | Previous Version | Graphics & Text | Print | Product List | Glossary On
Versions: 1 2 3 4 5 6 7 8 9 10 11 12 13 14 15 16 17 18 19 20 21 22 23 24 25 26 27 28 29 30 31 32 33 34 35 36 37 38 39 40 41 42 43 44 45 46 47 48 49 50
610
ASUS43 KLMK 300110
RWRKY
KENTUCKY REGIONAL WEATHER ROUNDUP
NATIONAL WEATHER SERVICE LOUISVILLE KY
900 PM EDT MON MAY 29 2017

NOTE "FAIR" INDICATES FEW OR NO CLOUDS BELOW 12,000 FEET
WITH NO SIGNIFICANT WEATHER AND/OR OBSTRUCTIONS TO VISIBILITY.

KYZ001>023-026-027-061>063-070>075-300200-
WESTERN AND SOUTH CENTRAL KENTUCKY

CITY           SKY/WX    TMP DP  RH WIND       PRES   REMARKS
PADUCAH        CLEAR     77  57  50 SW5       29.94R
HENDERSON      CLEAR     75  60  59 S7        29.93R
OWENSBORO      PTCLDY    74  60  61 SW6       29.94R
HOPKINSVILLE   CLOUDY    75  62  63 S6        29.97R
BOWLING GREEN  CLOUDY    78  63  59 SW8       29.97R
GLASGOW        CLOUDY    73  60  65 S5        29.98S
$$

KYZ024-025-028>034-038-045-046-053-300200-
NORTH CENTRAL KENTUCKY

CITY           SKY/WX    TMP DP  RH WIND       PRES   REMARKS
LOUISVILLE/SDF CLOUDY    77  58  51 SW7       29.93R
LOUISVILLE/LOU CLOUDY    78  58  49 S6        29.94R
FORT KNOX      CLOUDY    72  59  63 S5        29.93S
$$

KYZ035>037-039>044-047>052-055>060-089>105-300200-
NORTHEAST KENTUCKY

CITY           SKY/WX    TMP DP  RH WIND       PRES   REMARKS
LEXINGTON      CLOUDY    73  58  59 SW6       29.97S
COVINGTON      MOCLDY    74  52  46 S5        29.93R
FRANKFORT      CLOUDY    73  59  61 SW5       29.95R
$$

KYZ054-064>069-076>088-106>120-300200-
SOUTHEAST KENTUCKY

CITY           SKY/WX    TMP DP  RH WIND       PRES   REMARKS
JACKSON        CLOUDY    69  60  73 CALM      30.00F
LONDON         CLOUDY    71  60  68 S3        30.01S
SOMERSET       CLOUDY    70  59  68 CALM      30.01S
MIDDLESBORO    CLOUDY    70  65  83 CALM      30.02R
MONTICELLO     PTCLDY    68  64  87 NE7       30.02R
$$





USA.gov is the U.S. government's official web portal to all federal, state and local government web resources and services.